| time (UTC) | temp F | wind direction | speed MPH | gust MPH | rain 1hr in | rain 24hr in | rain mn in | humidity % | barometer mb |
| 20260508055619 | 75 | 315 | 3.0 | 6.0 | 0.00 | 0.00 | 0.00 | 2 | 1009.0 |
| 20260508054619 | 76 | 330 | 3.0 | 5.0 | 0.00 | 0.00 | 0.00 | 2 | 1009.0 |
| 20260508053619 | 76 | 299 | 5.0 | 7.0 | 0.00 | 0.00 | 0.00 | 2 | 1008.0 |
| 20260508052620 | 77 | 316 | 6.0 | 10.0 | 0.00 | 0.00 | 0.00 | 2 | 1008.0 |
| 20260508051620 | 77 | 315 | 7.0 | 6.0 | 0.00 | 0.00 | 0.00 | 2 | 1009.0 |
| 20260508050620 | 78 | 320 | 7.0 | 9.0 | 0.00 | 0.00 | 0.00 | 2 | 1009.0 |
| 20260508045620 | 78 | 320 | 7.0 | 7.0 | 0.00 | 0.00 | 0.00 | 2 | 1009.0 |
| 20260508044620 | 78 | 315 | 7.0 | 12.0 | 0.00 | 0.00 | 0.00 | 2 | 1009.0 |
| 20260508043620 | 78 | 315 | 5.0 | 10.0 | 0.00 | 0.00 | 0.00 | 2 | 1009.0 |
| 20260508042620 | 79 | 318 | 3.0 | 7.0 | 0.00 | 0.00 | 0.00 | 2 | 1009.0 |
| 20260508041619 | 79 | 328 | 6.0 | 6.0 | 0.00 | 0.00 | 0.00 | 2 | 1009.0 |
| 20260508040619 | 80 | 315 | 5.0 | 6.0 | 0.00 | 0.00 | 0.00 | 2 | 1008.0 |
| 20260508035619 | 81 | 315 | 6.0 | 17.0 | 0.00 | 0.00 | 0.00 | 2 | 1008.0 |
| 20260508034620 | 82 | 315 | 5.0 | 8.0 | 0.00 | 0.00 | 0.00 | 2 | 1008.0 |
| 20260508033619 | 82 | 323 | 6.0 | 8.0 | 0.00 | 0.00 | 0.00 | 2 | 1009.0 |
| 20260508032619 | 83 | 315 | 6.0 | 12.0 | 0.00 | 0.00 | 0.00 | 2 | 1009.0 |
| 20260508031619 | 83 | 339 | 2.0 | 8.0 | 0.00 | 0.00 | 0.00 | 2 | 1009.0 |
| 20260508030619 | 83 | 322 | 6.0 | 8.0 | 0.00 | 0.00 | 0.00 | 2 | 1009.0 |
| 20260508025619 | 84 | 318 | 6.0 | 12.0 | 0.00 | 0.00 | 0.00 | 2 | 1009.0 |
| 20260508024620 | 83 | 315 | 5.0 | 8.0 | 0.00 | 0.00 | 0.00 | 2 | 1009.0 |
| 20260508023620 | 83 | 315 | 5.0 | 9.0 | 0.00 | 0.00 | 0.00 | 2 | 1009.0 |
| 20260508022620 | 83 | 311 | 7.0 | 10.0 | 0.00 | 0.00 | 0.00 | 4 | 1009.0 |
| 20260508021620 | 83 | 315 | 8.0 | 12.0 | 0.00 | 0.00 | 0.00 | 6 | 1009.0 |
| 20260508020620 | 82 | 321 | 6.0 | 5.0 | 0.00 | 0.00 | 0.00 | 20 | 1008.0 |
| 20260508015620 | 83 | 331 | 6.0 | 9.0 | 0.00 | 0.00 | 0.00 | 21 | 1008.0 |
| 20260508014620 | 82 | 315 | 7.0 | 9.0 | 0.00 | 0.00 | 0.00 | 22 | 1008.0 |
| 20260508013620 | 81 | 315 | 6.0 | 12.0 | 0.00 | 0.00 | 0.00 | 26 | 1008.0 |
| 20260508012620 | 80 | 315 | 3.0 | 6.0 | 0.00 | 0.00 | 0.00 | 30 | 1008.0 |
| 20260508011620 | 76 | 315 | 2.0 | 8.0 | 0.00 | 0.00 | 0.00 | 34 | 1008.0 |
| 20260508010620 | 72 | 315 | 1.0 | 1.0 | 0.00 | 0.00 | 0.00 | 38 | 1008.0 |
| 20260508005620 | 71 | 315 | 1.0 | 5.0 | 0.00 | 0.00 | 0.00 | 41 | 1008.0 |
| 20260508004619 | 69 | 315 | 2.0 | 3.0 | 0.00 | 0.00 | 0.00 | 41 | 1008.0 |
| 20260508003620 | 68 | 338 | 0.0 | 1.0 | 0.00 | 0.00 | 0.00 | 42 | 1008.0 |
| 20260508002620 | 67 | 315 | 0.0 | 2.0 | 0.00 | 0.00 | 0.00 | 43 | 1008.0 |
| 20260508001620 | 67 | 315 | 2.0 | 5.0 | 0.00 | 0.00 | 0.00 | 43 | 1008.0 |
| 20260508000620 | 67 | 315 | 0.0 | 0.0 | 0.00 | 0.00 | 0.00 | 43 | 1007.0 |
| 20260507235620 | 67 | 315 | 2.0 | 2.0 | 0.00 | 0.00 | 0.00 | 43 | 1007.0 |
| 20260507234619 | 67 | 315 | 2.0 | 2.0 | 0.00 | 0.00 | 0.00 | 43 | 1007.0 |
| 20260507233620 | 67 | 315 | 2.0 | 3.0 | 0.00 | 0.00 | 0.00 | 43 | 1007.0 |
| 20260507232620 | 68 | 315 | 3.0 | 6.0 | 0.00 | 0.00 | 0.00 | 44 | 1007.0 |
| 20260507231619 | 68 | 315 | 1.0 | 0.0 | 0.00 | 0.00 | 0.00 | 46 | 1007.0 |
| 20260507230620 | 67 | 315 | 1.0 | 1.0 | 0.00 | 0.00 | 0.00 | 49 | 1007.0 |
| 20260507225620 | 67 | 315 | 2.0 | 3.0 | 0.00 | 0.00 | 0.00 | 49 | 1007.0 |
| 20260507224621 | 67 | 0 | 1.0 | 1.0 | 0.00 | 0.00 | 0.00 | 50 | 1007.0 |
| 20260507223621 | 67 | 0 | 0.0 | 0.0 | 0.00 | 0.00 | 0.00 | 50 | 1006.0 |
| 20260507222621 | 67 | 0 | 0.0 | 0.0 | 0.00 | 0.00 | 0.00 | 51 | 1006.0 |
| 20260507221621 | 67 | 0 | 0.0 | 0.0 | 0.00 | 0.00 | 0.00 | 51 | 1006.0 |
| 20260507220619 | 66 | 180 | 0.0 | 0.0 | 0.00 | 0.00 | 0.00 | 51 | 1006.0 |
| 20260507215619 | 66 | 180 | 0.0 | 0.0 | 0.00 | 0.00 | 0.00 | 51 | 1006.0 |
| 20260507214619 | 66 | 180 | 0.0 | 1.0 | 0.00 | 0.00 | 0.00 | 52 | 1008.0 |
| 20260507213619 | 66 | 338 | 0.0 | 0.0 | 0.00 | 0.00 | 0.00 | 52 | 1008.0 |
| 20260507212619 | 66 | 270 | 0.0 | 0.0 | 0.00 | 0.00 | 0.00 | 52 | 1008.0 |
| 20260507211619 | 66 | 315 | 2.0 | 3.0 | 0.00 | 0.00 | 0.00 | 51 | 1006.0 |
| 20260507210619 | 66 | 315 | 2.0 | 3.0 | 0.00 | 0.00 | 0.00 | 51 | 1007.0 |
| 20260507205619 | 66 | 217 | 0.0 | 0.0 | 0.00 | 0.00 | 0.00 | 50 | 1007.0 |
| 20260507204620 | 66 | 225 | 0.0 | 0.0 | 0.00 | 0.00 | 0.00 | 50 | 1007.0 |
| 20260507203619 | 66 | 195 | 0.0 | 0.0 | 0.00 | 0.00 | 0.00 | 49 | 1006.0 |
| 20260507202620 | 66 | 211 | 0.0 | 0.0 | 0.00 | 0.00 | 0.00 | 49 | 1006.0 |
| 20260507201620 | 66 | 192 | 1.0 | 1.0 | 0.00 | 0.00 | 0.00 | 49 | 1007.0 |
| 20260507200620 | 66 | 203 | 0.0 | 0.0 | 0.00 | 0.00 | 0.00 | 50 | 1007.0 |
| 20260507195620 | 67 | 180 | 0.0 | 0.0 | 0.00 | 0.00 | 0.00 | 51 | 1007.0 |
| 20260507194619 | 67 | 180 | 0.0 | 0.0 | 0.00 | 0.00 | 0.00 | 52 | 1006.0 |
| 20260507193621 | 67 | 180 | 1.0 | 1.0 | 0.00 | 0.00 | 0.00 | 52 | 1007.0 |
| 20260507192621 | 66 | 216 | 1.0 | 3.0 | 0.00 | 0.00 | 0.00 | 62 | 1007.0 |
| 20260507191620 | 66 | 270 | 0.0 | 2.0 | 0.00 | 0.00 | 0.00 | 60 | 1006.0 |
| 20260507190620 | 66 | 270 | 0.0 | 0.0 | 0.00 | 0.00 | 0.00 | 59 | 1006.0 |
| 20260507185619 | 67 | 225 | 0.0 | 0.0 | 0.00 | 0.00 | 0.00 | 59 | 1006.0 |
| 20260507184619 | 67 | 225 | 1.0 | 2.0 | 0.00 | 0.00 | 0.00 | 61 | 1006.0 |
| 20260507183620 | 67 | 195 | 0.0 | 5.0 | 0.00 | 0.00 | 0.00 | 63 | 1006.0 |
| 20260507182620 | 67 | 270 | 0.0 | 1.0 | 0.00 | 0.00 | 0.00 | 63 | 1006.0 |
| 20260507181620 | 67 | 225 | 1.0 | 2.0 | 0.00 | 0.00 | 0.00 | 63 | 1006.0 |
| 20260507180620 | 67 | 180 | 1.0 | 3.0 | 0.00 | 0.00 | 0.00 | 63 | 1006.0 |
| 20260507175620 | 67 | 225 | 0.0 | 0.0 | 0.00 | 0.00 | 0.00 | 62 | 1006.0 |
| 20260507174621 | 67 | 180 | 1.0 | 2.0 | 0.00 | 0.00 | 0.00 | 62 | 1006.0 |
| 20260507173621 | 67 | 224 | 3.0 | 6.0 | 0.00 | 0.00 | 0.00 | 62 | 1006.0 |
| 20260507172619 | 67 | 210 | 0.0 | 0.0 | 0.00 | 0.00 | 0.00 | 61 | 1006.0 |
| 20260507171619 | 67 | 194 | 0.0 | 2.0 | 0.00 | 0.00 | 0.00 | 59 | 1007.0 |
| 20260507170620 | 67 | 180 | 0.0 | 1.0 | 0.00 | 0.00 | 0.00 | 59 | 1007.0 |
| 20260507165620 | 67 | 286 | 0.0 | 0.0 | 0.00 | 0.00 | 0.00 | 59 | 1007.0 |
| 20260507164620 | 67 | 225 | 0.0 | 2.0 | 0.00 | 0.00 | 0.00 | 60 | 1008.0 |
| 20260507163620 | 67 | 270 | 0.0 | 0.0 | 0.00 | 0.00 | 0.00 | 60 | 1007.0 |
| 20260507162621 | 67 | 270 | 0.0 | 0.0 | 0.00 | 0.00 | 0.00 | 59 | 1007.0 |
| 20260507161621 | 66 | 90 | 0.0 | 0.0 | 0.00 | 0.00 | 0.00 | 59 | 1007.0 |
| 20260507160620 | 66 | 90 | 0.0 | 0.0 | 0.00 | 0.00 | 0.00 | 58 | 1007.0 |
| 20260507155620 | 66 | 90 | 0.0 | 0.0 | 0.00 | 0.00 | 0.00 | 57 | 1007.0 |
| 20260507154620 | 66 | 90 | 0.0 | 0.0 | 0.00 | 0.00 | 0.00 | 56 | 1007.0 |
| 20260507153620 | 66 | 315 | 0.0 | 0.0 | 0.00 | 0.00 | 0.00 | 55 | 1008.0 |
| 20260507152620 | 67 | 180 | 0.0 | 0.0 | 0.00 | 0.00 | 0.00 | 54 | 1008.0 |
| 20260507151620 | 67 | 180 | 0.0 | 0.0 | 0.00 | 0.00 | 0.00 | 54 | 1007.0 |
| 20260507150619 | 66 | 180 | 1.0 | 0.0 | 0.00 | 0.00 | 0.00 | 55 | 1008.0 |
| 20260507145619 | 66 | 180 | 0.0 | 2.0 | 0.00 | 0.00 | 0.00 | 56 | 1008.0 |
| 20260507144619 | 66 | 189 | 1.0 | 2.0 | 0.00 | 0.00 | 0.00 | 57 | 1008.0 |
| 20260507143619 | 65 | 180 | 0.0 | 0.0 | 0.00 | 0.00 | 0.00 | 55 | 1008.0 |
| 20260507142619 | 65 | 315 | 0.0 | 0.0 | 0.00 | 0.00 | 0.00 | 54 | 1008.0 |
| 20260507141619 | 65 | 315 | 0.0 | 0.0 | 0.00 | 0.00 | 0.00 | 53 | 1008.0 |
| 20260507140619 | 65 | 315 | 0.0 | 0.0 | 0.00 | 0.00 | 0.00 | 54 | 1008.0 |
| 20260507135620 | 65 | 315 | 0.0 | 0.0 | 0.00 | 0.00 | 0.00 | 53 | 1008.0 |
| 20260507134620 | 65 | 315 | 0.0 | 0.0 | 0.00 | 0.00 | 0.00 | 52 | 1008.0 |
| 20260507133620 | 65 | 315 | 0.0 | 0.0 | 0.00 | 0.00 | 0.00 | 52 | 1008.0 |
| 20260507132620 | 65 | 315 | 0.0 | 0.0 | 0.00 | 0.00 | 0.00 | 50 | 1008.0 |
| 20260507131620 | 65 | 315 | 0.0 | 0.0 | 0.00 | 0.00 | 0.00 | 51 | 1008.0 |
| 20260507130618 | 65 | 315 | 0.0 | 0.0 | 0.00 | 0.00 | 0.00 | 50 | 1008.0 |
| 20260507125618 | 66 | 315 | 0.0 | 0.0 | 0.00 | 0.00 | 0.00 | 50 | 1008.0 |
| 20260507124619 | 66 | 315 | 0.0 | 0.0 | 0.00 | 0.00 | 0.00 | 48 | 1007.0 |
| 20260507123619 | 66 | 315 | 0.0 | 0.0 | 0.00 | 0.00 | 0.00 | 47 | 1008.0 |
| 20260507122619 | 67 | 315 | 0.0 | 0.0 | 0.00 | 0.00 | 0.00 | 46 | 1008.0 |
| 20260507121619 | 67 | 315 | 0.0 | 0.0 | 0.00 | 0.00 | 0.00 | 46 | 1008.0 |
| 20260507120619 | 67 | 315 | 0.0 | 0.0 | 0.00 | 0.00 | 0.00 | 45 | 1007.0 |
| 20260507115619 | 68 | 315 | 0.0 | 0.0 | 0.00 | 0.00 | 0.00 | 44 | 1007.0 |
| 20260507114619 | 68 | 315 | 0.0 | 0.0 | 0.00 | 0.00 | 0.00 | 44 | 1007.0 |
| 20260507113619 | 69 | 315 | 0.0 | 0.0 | 0.00 | 0.00 | 0.00 | 43 | 1007.0 |
| 20260507112618 | 69 | 315 | 0.0 | 0.0 | 0.00 | 0.00 | 0.00 | 43 | 1007.0 |
| 20260507111618 | 70 | 315 | 0.0 | 0.0 | 0.00 | 0.00 | 0.00 | 42 | 1006.0 |
| 20260507110619 | 70 | 315 | 0.0 | 0.0 | 0.00 | 0.00 | 0.00 | 41 | 1007.0 |
| 20260507105620 | 70 | 315 | 0.0 | 0.0 | 0.00 | 0.00 | 0.00 | 41 | 1007.0 |
| 20260507104619 | 71 | 315 | 2.0 | 0.0 | 0.00 | 0.00 | 0.00 | 40 | 1006.0 |
| 20260507103618 | 71 | 315 | 2.0 | 2.0 | 0.00 | 0.00 | 0.00 | 39 | 1006.0 |
| 20260507102618 | 72 | 315 | 0.0 | 0.0 | 0.00 | 0.00 | 0.00 | 39 | 1006.0 |
| 20260507101618 | 73 | 344 | 2.0 | 6.0 | 0.00 | 0.00 | 0.00 | 37 | 1007.0 |
| 20260507100619 | 73 | 315 | 1.0 | 2.0 | 0.00 | 0.00 | 0.00 | 37 | 1007.0 |
| 20260507095620 | 74 | 292 | 0.0 | 0.0 | 0.00 | 0.00 | 0.00 | 35 | 1007.0 |
| 20260507094619 | 74 | 301 | 0.0 | 0.0 | 0.00 | 0.00 | 0.00 | 35 | 1007.0 |
| 20260507093619 | 75 | 315 | 0.0 | 0.0 | 0.00 | 0.00 | 0.00 | 34 | 1007.0 |
| 20260507092619 | 76 | 315 | 1.0 | 0.0 | 0.00 | 0.00 | 0.00 | 33 | 1007.0 |
| 20260507091619 | 77 | 315 | 0.0 | 0.0 | 0.00 | 0.00 | 0.00 | 33 | 1007.0 |
| 20260507090619 | 77 | 315 | 0.0 | 2.0 | 0.00 | 0.00 | 0.00 | 32 | 1007.0 |
| 20260507085619 | 78 | 270 | 1.0 | 1.0 | 0.00 | 0.00 | 0.00 | 32 | 1007.0 |
| 20260507084620 | 79 | 231 | 0.0 | 0.0 | 0.00 | 0.00 | 0.00 | 31 | 1007.0 |
| 20260507083618 | 79 | 225 | 1.0 | 2.0 | 0.00 | 0.00 | 0.00 | 31 | 1007.0 |
| 20260507082618 | 80 | 315 | 0.0 | 0.0 | 0.00 | 0.00 | 0.00 | 31 | 1007.0 |
| 20260507081618 | 80 | 315 | 1.0 | 3.0 | 0.00 | 0.00 | 0.00 | 31 | 1007.0 |
| 20260507080618 | 80 | 315 | 0.0 | 0.0 | 0.00 | 0.00 | 0.00 | 30 | 1007.0 |
| 20260507075618 | 80 | 315 | 2.0 | 3.0 | 0.00 | 0.00 | 0.00 | 30 | 1007.0 |
| 20260507074619 | 81 | 315 | 2.0 | 5.0 | 0.00 | 0.00 | 0.00 | 30 | 1007.0 |
| 20260507073619 | 82 | 329 | 3.0 | 3.0 | 0.00 | 0.00 | 0.00 | 30 | 1007.0 |
| 20260507072619 | 82 | 315 | 2.0 | 3.0 | 0.00 | 0.00 | 0.00 | 30 | 1007.0 |
| 20260507071620 | 81 | 315 | 3.0 | 3.0 | 0.00 | 0.00 | 0.00 | 30 | 1007.0 |
| 20260507070619 | 81 | 329 | 1.0 | 6.0 | 0.00 | 0.00 | 0.00 | 30 | 1007.0 |
| 20260507065620 | 81 | 315 | 1.0 | 3.0 | 0.00 | 0.00 | 0.00 | 30 | 1007.0 |
| 20260507064618 | 81 | 315 | 2.0 | 7.0 | 0.00 | 0.00 | 0.00 | 29 | 1007.0 |
| 20260507063618 | 82 | 315 | 2.0 | 7.0 | 0.00 | 0.00 | 0.00 | 29 | 1007.0 |
| 20260507062618 | 82 | 315 | 6.0 | 12.0 | 0.00 | 0.00 | 0.00 | 29 | 1007.0 |
| 20260507061618 | 82 | 315 | 3.0 | 6.0 | 0.00 | 0.00 | 0.00 | 27 | 1007.0 |
| 20260507060618 | 83 | 315 | 3.0 | 3.0 | 0.00 | 0.00 | 0.00 | 26 | 1007.0 |